Location: Pian di Sc�
(43.6333°N, 11.5500°E)
Time: 08:22:33
(UTC+00:00)

Meteor 1-15 Rocket - Pass Details

Date: 07 August 2020
Orbit: 839 x 907 km, 81.2° (Epoch: 18 September)

Event Time Altitude Azimuth Distance (km) Brightness Sun altitude
Exits shadow 01:22:45 55° 238° (WSW) 1,032 4.3 -23.7°
Maximum altitude 01:23:42 64° 282° (WNW) 953 4.3 -23.7°
Drops below altitude 10° 01:29:18 10° 4° (N) 2,485 7.4 -23.1°
Sets 01:31:45 0° 8° (N) 3,418 8.4 -22.8°
